Wind_Speed
2 3 3 3 4 5 5 5 5 5 5 4 4 4 4 4 5 5 5 5 5 4 4 4 3 3 3 2 2 2 2 2 3 3 3 4 5 5 5 6 7 7 7
2 2 3 4 4 5 5 4 4 4 4 4 4 3 3 4 5 4 4 4 3 3 3 3 3 2 2 2 2 2 3 3 4 4 5 5 6 6 7 7 8 8 9
2 2 3 4 4 4 4 4 4 4 3 3 3 2 2 3 4 4 3 3 3 2 2 2 2 3 3 3 3 4 4 5 5 6 6 6 7 7 8 9 9 10 10
2 3 3 4 4 5 5 4 3 3 3 3 2 2 2 3 3 3 3 3 2 2 2 3 3 4 4 5 5 6 6 6 6 7 8 8 9 9 10 10 10 11 12
2 4 4 4 5 5 4 4 4 4 4 3 3 3 3 3 3 3 3 3 3 4 4 4 4 5 6 6 7 7 8 8 8 9 9 10 11 11 11 11 12 13 13
2 4 4 5 5 5 5 5 5 5 5 4 4 4 4 4 4 4 4 5 5 5 5 6 7 7 7 8 8 9 10 10 10 10 11 11 12 12 12 13 13 14 15
2 3 5 5 5 5 5 5 6 6 6 6 5 5 6 6 5 6 6 6 6 7 7 8 8 8 9 9 10 10 11 11 12 12 13 13 13 14 14 15 15 16 16
3 3 5 6 6 6 6 7 7 7 7 7 7 7 7 7 8 8 8 8 9 9 9 10 10 10 11 11 11 12 12 13 14 14 15 15 16 16 16 17 17 18 19
4 4 5 6 7 7 8 8 8 8 9 9 9 9 9 10 10 10 10 10 10 11 11 11 12 13 13 13 13 14 14 15 15 16 16 17 18 18 18 19 20 21 21
5 5 5 6 7 8 8 9 10 10 10 11 11 11 11 11 11 12 12 13 13 13 14 14 14 14 15 15 15 16 16 16 17 18 18 19 19 20 20 21 22 22 22
5 6 6 7 7 8 9 9 10 11 11 12 12 12 13 13 13 14 14 15 14 15 15 15 16 16 16 17 17 18 18 18 19 19 20 20 20 21 21 22 22 23 23
6 7 7 8 9 9 10 11 11 11 11 12 13 13 14 14 14 14 15 15 15 16 16 17 17 18 18 18 18 19 19 19 20 20 20 21 21 21 22 23 23 24 25
8 8 8 9 10 11 11 11 11 12 12 13 13 14 14 14 14 15 16 17 17 17 18 19 19 19 20 20 20 21 21 21 21 21 21 22 22 22 23 24 25 25 26
8 9 9 10 10 11 11 12 12 12 13 13 14 14 14 14 15 16 18 18 18 19 19 20 20 21 21 21 22 22 22 23 23 23 23 23 24 25 26 26 27 28 28
7 8 10 10 10 11 11 12 13 13 14 14 14 14 15 16 17 17 18 18 18 19 20 21 21 21 22 22 22 23 24 24 25 25 25 25 26 27 27 27 27 28 29
8 8 9 9 10 11 11 12 13 14 14 14 15 15 15 16 17 17 18 18 18 19 19 20 21 21 22 23 23 24 24 24 25 26 26 27 27 28 28 28 29 29 30
9 9 10 10 10 10 11 12 12 14 14 15 15 16 16 16 16 17 17 17 18 18 18 19 20 22 23 23 24 24 25 25 26 26 26 27 29 29 30 30 30 31 31
11 11 11 11 11 11 12 12 13 14 15 15 16 17 17 18 18 18 18 18 19 20 20 21 22 23 24 24 25 26 26 27 27 28 29 29 30 31 31 32 31 31 32
12 12 12 12 12 12 13 13 14 15 16 16 17 17 18 18 18 18 19 20 20 21 22 22 23 24 25 26 26 27 27 28 29 29 30 31 32 32 32 32 32 33 33
13 13 13 13 13 13 14 15 15 16 17 17 18 18 19 20 20 20 21 21 22 23 24 24 25 26 27 27 27 28 28 29 29 30 31 32 33 33 33 33 33 33 33
14 14 14 14 14 15 15 15 16 16 17 18 18 19 19 20 21 21 22 23 24 24 25 26 27 27 27 28 28 29 29 30 30 31 32 32 32 32 32 32 32 32 33
16 16 15 16 15 15 16 16 16 16 17 18 19 19 20 21 22 22 23 24 25 25 26 26 27 28 29 29 29 29 30 31 31 31 31 32 32 32 32 32 32 32 32
17 17 17 17 17 17 17 17 17 18 18 18 20 21 22 22 23 23 24 24 25 26 26 26 27 27 28 29 30 30 31 31 31 31 31 32 31 31 32 32 33 33 32
19 18 18 19 19 18 18 18 18 19 19 19 20 21 22 23 24 24 25 26 26 26 26 27 27 28 29 29 30 30 31 31 31 30 30 31 31 31 32 32 33 33 33
20 20 20 20 20 19 19 20 20 20 20 21 21 22 23 24 24 25 26 27 27 27 28 28 29 30 31 31 31 31 32 32 32 32 32 32 32 32 32 33 33 33 33
22 22 21 21 20 21 21 21 21 21 22 22 23 24 24 24 25 26 27 28 28 28 29 30 31 31 31 32 32 32 31 32 32 32 32 32 32 32 33 34 34 34 34
Wind_Direction
127 131 140 149 145 138 136 130 126 124 121 125 123 125 134 137 137 136 134 130 132 135 142 151 155 157 162 173 187 199 212 223 237 248 261 267 267 268 271 271 269 269 271
147 144 151 152 157 156 154 149 140 136 138 133 133 138 138 139 142 142 141 140 145 149 157 168 179 185 197 208 219 230 236 249 253 259 267 273 272 270 272 272 269 269 272
172 181 159 162 167 168 168 164 155 151 148 140 138 143 147 149 152 159 162 165 172 183 193 201 210 223 236 244 250 252 255 260 264 267 271 274 271 272 276 276 274 272 272
185 188 180 179 177 179 181 180 174 171 169 168 168 166 165 168 176 183 186 197 214 224 225 235 245 256 260 261 261 266 271 273 274 274 274 275 275 275 278 277 276 276 275
199 196 194 197 194 193 194 196 194 198 200 205 209 203 189 188 200 209 216 229 243 246 250 260 262 269 274 272 272 273 275 278 279 281 282 280 278 276 276 275 278 278 277
208 197 198 203 202 204 206 208 211 214 218 220 220 222 220 216 219 229 239 247 255 262 263 266 265 272 277 274 274 280 279 278 280 282 284 282 281 280 278 276 278 280 279
223 209 208 206 209 212 216 222 225 227 228 228 230 231 235 234 235 240 245 253 260 265 267 267 268 270 273 275 277 277 279 279 278 279 282 280 280 279 278 277 278 280 279
232 223 222 223 224 228 232 237 238 239 240 240 241 242 244 244 248 250 253 257 261 264 268 272 269 270 273 274 275 278 277 279 279 279 279 280 279 279 278 278 277 279 278
238 241 233 237 239 240 243 245 244 246 245 247 248 248 250 252 254 257 259 262 264 269 271 272 272 271 274 274 276 278 280 280 281 280 278 279 280 279 278 277 278 278 277
245 248 243 245 249 248 250 251 250 249 249 250 252 251 253 255 256 258 261 263 265 267 269 270 270 272 274 273 275 276 278 279 282 282 279 280 279 279 279 278 277 277 277
252 254 255 256 259 258 258 258 255 252 252 254 256 255 257 259 262 263 263 264 265 266 268 269 271 272 273 274 276 278 279 281 281 283 280 280 278 278 280 281 279 278 277
269 264 262 265 265 263 261 261 259 258 259 259 257 257 260 264 265 265 267 266 269 271 270 270 271 273 276 276 278 280 279 282 281 282 281 281 279 278 279 280 280 280 279
277 272 274 277 273 266 264 263 261 260 263 261 259 261 264 266 268 268 269 271 273 274 274 273 274 275 276 277 278 280 281 281 281 280 280 281 280 280 280 281 281 281 281
287 278 278 281 279 270 264 264 264 264 264 263 264 265 266 269 271 274 274 274 274 274 275 276 277 278 278 279 279 278 280 280 279 279 280 280 281 281 282 280 280 280 281
299 290 284 281 283 277 269 266 264 264 265 266 268 269 270 272 274 276 277 277 276 275 276 277 277 278 278 280 281 279 279 279 279 280 280 281 282 282 283 283 282 281 281
298 296 295 288 285 281 275 271 269 268 269 270 271 273 274 275 278 278 279 280 280 279 279 279 279 280 281 282 281 281 282 281 281 281 281 281 283 283 284 284 285 284 283
300 294 292 289 288 286 281 278 278 276 275 276 276 276 275 276 278 281 284 285 285 283 282 283 284 284 285 286 285 284 283 284 283 281 282 284 284 284 285 284 285 284 284
302 297 296 294 289 289 289 283 280 279 277 276 277 277 277 278 280 282 284 285 285 285 283 284 285 286 286 286 286 285 284 285 285 283 283 284 284 285 285 285 284 284 285
309 303 298 295 291 290 292 293 286 284 281 279 278 277 278 278 280 281 283 284 285 284 283 283 284 286 287 286 285 286 286 287 287 286 284 284 285 285 285 285 285 284 284
315 308 302 296 291 291 293 294 291 289 285 282 281 281 279 280 280 281 283 283 283 284 284 285 286 287 287 287 287 287 288 288 288 287 285 285 285 284 284 284 285 284 285
314 312 309 305 297 294 294 295 296 294 292 287 285 284 283 283 283 284 283 284 285 285 286 288 289 289 289 288 289 289 289 289 288 287 286 287 286 285 285 285 286 285 286
314 309 309 311 305 299 297 296 298 298 296 293 290 287 285 285 286 287 286 286 287 287 288 289 290 291 291 291 291 291 291 290 289 288 287 288 287 286 286 286 286 287 286
312 310 309 309 306 302 300 297 296 295 294 294 293 290 287 285 285 286 287 286 288 289 290 290 290 292 293 293 292 291 291 290 289 289 289 288 287 288 288 288 287 288 288
312 308 307 306 304 302 301 299 298 297 294 294 295 293 291 289 289 289 288 288 289 292 292 293 293 293 293 293 293 291 291 291 291 291 290 289 287 286 287 287 288 288 288
309 308 307 305 303 301 300 299 297 297 296 296 295 294 293 294 294 295 295 293 293 294 294 294 294 294 294 294 293 291 292 291 290 290 290 289 287 286 287 287 287 288 289
305 305 305 304 304 302 300 298 297 297 296 294 294 294 294 294 294 296 296 296 294 294 294 294 293 294 294 294 293 292 291 289 289 289 289 289 289 288 287 287 287 288 289
Height
5897 5897 5897 5897 5898 5898 5898 5899 5899 5899 5899 5899 5899 5899 5900 5900 5900 5900 5900 5900 5900 5900 5900 5900 5900 5900 5900 5900 5900 5900 5900 5899 5899 5899 5899 5899 5898 5898 5898 5897 5897 5896 5896
5896 5897 5897 5897 5898 5898 5899 5899 5899 5900 5900 5900 5900 5900 5900 5900 5900 5900 5900 5900 5900 5900 5900 5900 5900 5900 5900 5900 5900 5900 5899 5899 5899 5899 5898 5898 5897 5897 5896 5896 5895 5895 5894
5896 5897 5897 5897 5898 5898 5899 5900 5900 5900 5900 5901 5901 5900 5900 5900 5900 5900 5900 5900 5900 5900 5900 5900 5900 5900 5900 5900 5899 5899 5898 5898 5898 5897 5897 5896 5896 5895 5895 5894 5894 5893 5892
5896 5897 5897 5897 5898 5899 5899 5899 5900 5900 5901 5901 5901 5901 5901 5901 5900 5900 5900 5900 5900 5900 5900 5900 5900 5899 5899 5899 5898 5898 5897 5897 5896 5896 5895 5895 5894 5893 5893 5892 5891 5891 5890
5896 5897 5897 5897 5898 5898 5899 5899 5900 5900 5900 5900 5900 5900 5900 5900 5900 5900 5900 5900 5900 5899 5899 5899 5898 5898 5898 5897 5897 5896 5896 5895 5895 5894 5893 5893 5892 5891 5891 5890 5889 5888 5887
5896 5896 5896 5897 5898 5898 5898 5899 5899 5899 5899 5899 5900 5900 5900 5900 5900 5900 5899 5899 5898 5898 5898 5897 5897 5897 5896 5896 5895 5894 5894 5893 5892 5892 5891 5890 5889 5888 5888 5887 5886 5885 5884
5895 5895 5896 5896 5897 5897 5897 5898 5898 5898 5898 5898 5899 5899 5899 5899 5899 5898 5898 5897 5897 5896 5896 5895 5895 5895 5895 5894 5893 5892 5891 5890 5889 5889 5888 5887 5886 5885 5885 5884 5883 5882 5881
5894 5894 5895 5895 5895 5896 5896 5896 5897 5897 5897 5897 5897 5897 5897 5898 5897 5897 5896 5896 5895 5894 5894 5894 5893 5892 5892 5891 5890 5890 5889 5887 5886 5886 5885 5884 5883 5882 5881 5880 5879 5878 5877
5893 5893 5893 5893 5894 5894 5894 5894 5895 5895 5895 5895 5895 5896 5895 5895 5895 5895 5894 5894 5893 5892 5891 5891 5890 5889 5889 5888 5887 5886 5885 5884 5883 5882 5881 5880 5879 5878 5876 5875 5874 5873 5872
5892 5891 5891 5892 5892 5892 5892 5892 5892 5892 5892 5892 5893 5893 5893 5893 5893 5893 5892 5891 5891 5890 5889 5888 5887 5886 5885 5884 5884 5882 5881 5880 5879 5878 5876 5875 5874 5873 5871 5870 5869 5868 5867
5890 5890 5890 5890 5890 5890 5890 5890 5889 5889 5890 5890 5890 5890 5890 5889 5889 5889 5889 5888 5888 5887 5886 5884 5884 5883 5882 5880 5879 5878 5877 5875 5874 5873 5872 5870 5869 5868 5866 5865 5863 5862 5861
5889 5888 5888 5888 5888 5887 5887 5887 5886 5886 5886 5886 5886 5886 5886 5886 5886 5885 5885 5884 5883 5883 5882 5880 5879 5878 5877 5876 5874 5873 5872 5871 5869 5868 5866 5865 5864 5862 5861 5859 5858 5856 5855
5887 5886 5886 5885 5885 5884 5884 5884 5883 5883 5883 5883 5882 5882 5882 5882 5881 5881 5880 5880 5879 5878 5877 5876 5875 5874 5873 5871 5870 5868 5867 5865 5864 5862 5861 5859 5858 5856 5855 5853 5852 5850 5848
5885 5884 5884 5883 5882 5881 5881 5881 5880 5880 5880 5880 5879 5879 5878 5878 5877 5877 5876 5875 5874 5873 5872 5871 5870 5869 5867 5866 5864 5863 5861 5860 5858 5857 5855 5853 5852 5850 5848 5847 5845 5843 5841
5883 5882 5881 5880 5879 5878 5877 5877 5877 5876 5876 5876 5876 5875 5874 5874 5873 5872 5871 5870 5869 5868 5867 5866 5864 5863 5861 5860 5859 5857 5856 5854 5852 5850 5849 5847 5845 5843 5841 5840 5838 5836 5834
5881 5880 5878 5877 5876 5875 5874 5873 5873 5872 5872 5872 5871 5871 5870 5869 5868 5867 5866 5865 5864 5863 5862 5860 5859 5858 5856 5855 5853 5851 5849 5848 5846 5844 5842 5840 5838 5836 5834 5832 5830 5828 5826
5878 5877 5875 5874 5873 5872 5871 5870 5869 5868 5868 5867 5867 5866 5866 5865 5864 5863 5861 5860 5859 5858 5856 5855 5853 5852 5850 5848 5847 5845 5843 5841 5839 5837 5835 5833 5831 5829 5827 5825 5823 5820 5818
5875 5873 5872 5871 5870 5869 5867 5866 5865 5864 5863 5863 5862 5861 5861 5860 5859 5858 5856 5855 5853 5852 5851 5849 5847 5846 5844 5842 5840 5838 5836 5834 5832 5830 5827 5825 5823 5821 5818 5816 5814 5812 5810
5872 5870 5869 5868 5866 5865 5864 5862 5861 5860 5859 5858 5857 5856 5855 5854 5853 5852 5851 5849 5848 5846 5845 5843 5841 5839 5837 5835 5833 5831 5829 5827 5824 5822 5819 5817 5815 5812 5810 5808 5805 5803 5801
5869 5867 5866 5864 5863 5861 5860 5858 5857 5855 5854 5853 5852 5851 5850 5849 5848 5846 5845 5843 5842 5840 5838 5836 5834 5832 5830 5828 5825 5823 5821 5819 5816 5814 5811 5809 5806 5804 5801 5799 5796 5794 5792
5866 5864 5862 5860 5859 5857 5855 5854 5852 5850 5849 5848 5846 5845 5844 5843 5841 5840 5839 5837 5835 5833 5831 5829 5827 5825 5822 5820 5818 5815 5813 5810 5807 5805 5802 5800 5797 5795 5792 5790 5787 5784 5782
5863 5861 5859 5857 5855 5853 5851 5849 5847 5845 5844 5842 5841 5839 5838 5837 5835 5833 5832 5830 5828 5826 5824 5822 5820 5817 5815 5812 5809 5807 5804 5802 5799 5797 5794 5791 5788 5786 5783 5781 5778 5775 5773
5859 5857 5855 5852 5850 5848 5846 5844 5842 5840 5839 5837 5835 5834 5832 5830 5828 5827 5825 5823 5821 5819 5817 5814 5812 5809 5807 5804 5801 5799 5796 5793 5790 5788 5785 5782 5779 5777 5774 5771 5769 5766 5764
5854 5852 5850 5848 5846 5843 5841 5839 5837 5835 5833 5831 5829 5828 5826 5824 5822 5820 5818 5816 5814 5811 5809 5806 5804 5801 5799 5796 5793 5790 5787 5784 5781 5779 5776 5774 5771 5768 5765 5762 5759 5757 5754
5850 5848 5845 5843 5841 5838 5836 5834 5832 5830 5828 5826 5823 5822 5820 5818 5816 5813 5811 5808 5806 5803 5801 5798 5795 5793 5790 5787 5784 5781 5778 5775 5772 5770 5767 5765 5762 5759 5756 5753 5750 5748 5745
5845 5843 5840 5838 5835 5833 5831 5828 5826 5824 5822 5819 5817 5815 5813 5811 5808 5806 5804 5801 5798 5796 5793 5790 5787 5784 5781 5778 5775 5772 5769 5766 5763 5761 5758 5755 5752 5750 5747 5744 5741 5738 5735